Location: Alderney
(49.7170°N, 2.2000°W)
Time: 15:16:38
(UTC+00:00)

ISS - Visible Passes

Search period start: 11 December 2017 00:00
Search period end: 21 December 2017 00:00
Orbit: 402 x 407 km, 51.6° (Epoch: 11 December)

Date Brightness Start Highest point End Pass type
(mag) Time Alt. Az. Time Alt. Az. Time Alt. Az.
11 Dec -3.8 17:09:36 10° WNW 17:12:54 69° NNE 17:15:48 13° E visible
11 Dec -2.1 18:46:10 10° W 18:48:28 33° WSW 18:48:28 33° WSW visible
12 Dec -3.4 17:53:52 10° WNW 17:57:07 60° SSW 17:58:40 27° SE visible
12 Dec -0.2 19:31:20 10° WSW 19:31:21 10° WSW 19:31:21 10° WSW visible
13 Dec -3.8 17:01:35 10° WNW 17:04:53 85° SSW 17:08:11 10° ESE visible
13 Dec -1.6 18:38:26 10° W 18:41:02 22° SW 18:41:44 20° SSW visible
14 Dec -2.2 17:45:54 10° W 17:48:56 34° SSW 17:51:56 10° SE visible
15 Dec -2.9 16:53:31 10° WNW 16:56:44 52° SSW 16:59:57 10° SE visible
15 Dec -0.6 18:31:27 10° WSW 18:32:38 11° SW 18:33:47 10° SSW visible
16 Dec -0.9 17:38:12 10° W 17:40:35 19° SW 17:42:57 10° S visible
17 Dec -1.6 16:45:32 10° W 16:48:27 29° SW 16:51:21 10° SSE visible
